Wind_Speed
23 22 20 18 15 14 14 15 15 15 14 16 15 11 8 7 6 7 7 9 6 5 5 5 9 12 12 13 12 14 16 18 20 21 22 24 22 20 20 20 20 20 22
27 26 24 23 22 19 16 15 16 16 16 17 16 14 12 10 8 8 9 10 8 8 8 8 7 8 10 12 14 16 17 20 22 24 24 25 25 24 22 21 21 21 22
28 29 28 26 24 22 20 18 17 18 18 18 18 18 16 15 13 12 12 12 12 11 10 11 10 9 9 11 13 15 16 20 21 22 23 23 23 24 25 23 22 22 21
28 28 31 30 26 24 25 23 21 21 21 21 21 20 19 18 17 16 16 16 15 14 14 13 12 11 11 11 12 12 14 15 15 16 16 16 17 19 22 22 21 21 22
38 27 28 34 31 30 29 29 25 27 25 24 24 24 23 22 20 19 18 18 17 18 17 16 15 12 13 13 13 12 13 14 15 14 14 12 13 16 16 18 20 21 22
35 40 38 34 37 36 31 32 30 32 27 29 29 28 27 26 24 23 21 21 20 19 21 20 18 17 15 15 15 15 15 16 15 16 15 16 16 17 18 20 21 23 25
37 37 38 38 37 37 36 35 35 32 33 34 31 31 32 30 28 27 26 25 26 25 24 23 23 22 18 19 18 18 19 18 17 18 18 17 18 19 21 21 23 25 24
18 30 37 36 37 36 37 37 37 38 36 35 33 33 34 33 33 31 30 30 30 30 30 28 27 25 24 24 21 22 22 22 21 21 20 18 19 21 23 23 24 26 25
12 17 25 41 41 40 39 41 42 41 42 41 41 39 36 33 33 33 33 35 35 34 33 33 32 31 28 28 30 27 26 26 25 25 24 23 23 24 26 27 25 25 24
19 17 19 27 36 37 40 37 36 38 38 38 39 41 39 34 34 35 35 37 38 37 36 36 36 36 33 32 33 34 33 29 30 30 32 30 28 27 28 29 28 28 25
23 23 22 22 23 34 36 37 37 34 35 35 37 42 42 41 37 36 36 38 39 39 39 38 37 36 37 37 37 37 35 34 36 36 35 35 34 33 31 28 27 28 26
30 28 26 26 26 25 29 36 39 40 39 36 37 37 38 42 42 40 38 38 37 40 40 39 39 40 39 37 38 39 39 39 41 41 40 38 37 36 36 35 35 31 27
38 36 34 32 29 29 29 28 30 37 47 47 45 42 40 40 42 41 41 41 39 42 41 40 40 42 44 42 37 37 39 41 45 46 43 40 39 39 38 37 36 38 37
37 40 40 38 36 34 32 31 32 31 33 44 50 48 46 43 41 46 45 45 41 43 43 43 41 40 41 40 41 39 41 40 42 45 44 42 40 40 40 38 37 36 37
41 39 40 43 42 41 39 36 32 30 31 30 33 42 46 47 46 43 50 51 50 45 45 45 40 39 37 37 38 39 40 40 39 40 42 41 40 39 38 37 37 36 38
43 43 43 43 45 47 46 45 44 39 34 30 30 31 31 41 46 48 49 50 50 47 47 44 38 39 39 37 37 38 38 40 38 35 32 35 37 38 38 36 35 36 35
40 41 45 45 47 47 50 50 50 48 46 41 38 36 33 30 27 38 44 50 53 54 48 48 46 41 42 41 40 40 38 38 34 29 28 30 31 32 32 32 32 32 33
41 42 43 46 49 50 50 49 52 54 53 50 47 44 41 39 36 34 35 43 50 55 54 49 45 43 40 45 41 43 41 41 39 35 35 33 32 31 31 30 30 30 29
40 43 44 45 48 49 52 54 52 51 56 57 53 49 49 46 42 37 37 41 44 51 50 45 37 37 39 38 46 42 40 40 39 38 35 34 33 32 31 31 32 32 32
37 39 40 43 46 46 48 52 53 54 51 55 57 52 51 50 46 41 40 39 37 45 41 54 43 42 41 38 41 41 40 35 34 34 34 34 34 34 33 33 35 37 38
35 35 38 39 43 43 42 46 50 51 53 50 53 57 55 48 49 48 45 43 35 36 38 40 53 54 48 45 45 44 40 35 33 32 32 32 32 32 33 35 37 37 38
36 35 35 37 38 40 39 40 44 48 51 51 52 54 61 52 47 49 50 47 41 36 39 37 38 43 43 45 40 40 34 35 34 33 34 33 31 30 31 32 34 35 36
35 35 35 37 38 40 41 37 39 41 47 50 52 56 56 60 54 48 47 50 49 42 37 36 35 41 41 43 42 40 38 36 29 30 30 33 34 37 36 29 33 34 34
33 33 34 35 38 39 40 41 41 44 44 46 52 56 57 58 60 55 50 45 48 48 40 38 35 39 42 40 44 50 46 47 32 36 38 41 46 38 43 44 38 37 37
30 29 30 32 35 37 37 39 42 45 47 49 48 54 56 56 56 59 54 50 47 48 44 42 36 35 38 40 42 36 35 35 33 35 37 41 41 47 52 46 40 44 43
30 26 26 28 31 33 36 38 41 43 44 47 49 49 52 52 51 51 54 51 50 48 46 45 40 35 37 39 37 38 39 41 41 38 40 40 43 37 37 36 39 45 45
Wind_Direction
218 215 213 214 217 220 225 229 235 241 232 221 226 231 224 228 237 253 263 252 263 261 266 263 236 241 240 222 242 251 248 251 254 252 257 268 280 282 286 294 301 312 321
220 224 221 221 223 223 222 226 232 236 241 239 234 238 239 240 246 249 248 257 258 264 263 256 254 245 241 244 251 255 256 258 262 264 267 273 279 283 285 289 293 302 311
231 225 226 225 227 230 231 231 233 237 240 242 245 242 244 243 246 246 247 250 258 257 255 259 256 256 250 250 250 256 261 258 260 265 269 273 277 282 285 288 292 298 306
203 218 233 225 231 232 233 235 240 241 242 243 246 248 247 246 243 245 244 247 250 260 262 260 257 259 258 258 259 259 263 272 276 280 280 283 284 283 284 285 288 295 301
207 199 213 231 234 237 235 233 241 244 245 246 247 250 249 250 252 251 250 249 246 251 261 265 265 264 266 266 267 264 265 268 275 286 291 292 287 285 295 296 296 297 300
226 226 221 227 224 227 237 242 247 244 253 253 252 253 253 254 253 254 256 256 255 251 254 256 261 259 258 264 266 267 271 274 279 281 282 284 290 289 292 292 296 297 299
232 232 229 234 236 237 238 236 243 242 250 256 255 256 257 257 257 257 256 256 259 258 258 260 262 264 260 258 263 267 269 274 275 276 279 283 283 288 289 293 295 295 300
243 240 234 237 239 241 242 242 242 244 247 252 257 258 258 258 257 257 258 258 257 259 262 261 261 263 265 269 266 270 271 273 277 279 281 281 284 286 290 293 295 298 299
255 242 238 232 238 239 245 250 248 247 247 252 255 257 259 259 259 257 256 257 258 259 261 265 267 266 263 264 270 271 273 277 281 281 278 280 282 282 286 291 297 298 303
254 251 245 241 240 243 246 241 241 243 245 249 250 252 255 257 256 254 254 254 257 259 259 261 264 267 267 267 266 271 274 275 279 280 283 284 282 281 284 287 291 295 297
257 256 251 251 249 242 240 241 242 242 246 245 256 253 252 252 254 256 253 252 254 258 259 262 264 263 265 266 266 266 269 272 272 272 274 276 279 284 286 285 284 287 290
251 255 258 255 255 253 248 248 247 246 246 249 246 249 255 254 253 253 254 254 254 257 259 261 264 266 265 262 260 262 265 266 266 267 269 272 277 282 288 293 295 292 289
253 252 253 256 256 256 256 259 255 251 248 246 251 256 259 257 253 254 256 255 253 255 258 261 261 262 264 265 263 263 261 260 264 267 269 271 275 279 281 283 286 288 289
256 252 250 251 252 254 254 255 257 257 254 251 251 252 252 253 251 247 252 255 257 254 253 252 254 258 261 262 261 258 260 260 260 264 269 272 273 274 277 281 282 284 285
261 257 254 250 250 250 250 252 252 254 256 257 252 246 247 248 254 255 250 251 254 255 253 252 251 252 252 254 257 258 262 261 259 263 264 267 270 271 272 274 277 279 282
270 262 258 254 252 250 249 252 252 250 252 254 253 250 249 252 250 251 251 251 250 251 251 253 251 253 254 253 256 258 260 264 267 268 265 264 265 267 270 272 272 274 278
275 271 264 259 256 253 250 249 251 254 254 251 248 255 258 253 262 258 256 253 250 246 247 246 250 251 254 255 254 256 261 269 272 274 272 271 268 266 267 268 268 271 274
280 273 269 264 260 257 254 256 251 251 252 253 254 254 254 260 264 267 273 271 257 253 251 244 246 251 256 260 256 257 258 257 262 265 267 269 269 269 269 267 267 267 269
279 277 274 268 263 259 255 254 254 254 253 253 253 254 255 257 257 264 267 275 265 254 254 239 245 260 268 254 253 258 260 261 264 262 260 262 262 264 268 268 268 269 270
278 276 276 274 269 260 254 252 253 253 254 253 253 253 255 254 252 253 259 262 268 257 254 249 247 262 269 258 245 257 255 258 257 257 255 256 259 261 263 264 268 271 273
282 277 271 273 267 266 257 250 249 252 251 253 255 252 253 256 254 251 250 250 260 264 254 254 252 256 262 257 248 252 249 251 255 258 257 257 257 260 265 268 270 270 270
287 281 274 267 265 260 259 253 250 249 252 251 253 254 252 250 253 252 250 249 250 259 255 255 258 255 257 255 257 251 252 254 250 255 255 255 257 262 269 273 273 273 273
291 284 276 268 263 258 255 256 256 253 250 252 252 253 252 250 248 253 252 251 249 253 258 256 258 258 258 254 251 245 254 259 257 258 261 264 265 262 267 281 286 278 273
301 291 283 273 265 262 257 255 256 257 257 255 252 251 252 252 249 250 254 255 253 251 252 260 253 257 255 255 255 250 251 249 264 268 264 269 269 264 268 275 278 273 272
315 302 291 282 273 269 268 263 260 256 255 257 258 254 249 249 251 249 251 252 257 255 254 253 258 257 255 251 250 248 246 261 254 267 268 267 270 271 271 270 271 275 275
329 315 303 294 284 277 271 265 263 259 255 255 255 253 249 245 246 248 250 250 255 258 257 253 255 261 259 252 248 248 254 243 253 260 266 264 263 264 268 263 257 258 265
Height
3216 3219 3222 3225 3227 3228 3230 3232 3234 3236 3239 3239 3240 3242 3243 3244 3245 3247 3248 3249 3249 3250 3250 3251 3252 3253 3255 3257 3259 3259 3259 3259 3259 3261 3261 3260 3261 3261 3261 3260 3259 3258 3254
3213 3216 3219 3222 3224 3226 3227 3229 3231 3233 3235 3237 3237 3239 3240 3242 3244 3245 3246 3247 3248 3249 3249 3249 3250 3251 3252 3253 3254 3255 3256 3256 3257 3257 3258 3258 3258 3257 3256 3256 3255 3255 3252
3209 3211 3215 3218 3221 3223 3226 3227 3228 3229 3231 3233 3235 3236 3237 3239 3240 3242 3244 3245 3245 3246 3247 3248 3248 3248 3250 3250 3251 3252 3253 3253 3253 3254 3254 3254 3254 3254 3253 3252 3252 3251 3250
3198 3207 3210 3213 3217 3220 3222 3223 3225 3227 3228 3230 3232 3233 3234 3236 3237 3238 3239 3241 3242 3243 3243 3244 3245 3246 3247 3248 3248 3249 3250 3251 3251 3251 3251 3250 3250 3249 3249 3248 3248 3247 3246
3196 3198 3202 3206 3212 3214 3217 3219 3221 3223 3225 3226 3228 3229 3231 3233 3234 3235 3237 3238 3239 3239 3240 3241 3242 3243 3244 3245 3246 3247 3247 3248 3247 3247 3247 3247 3247 3246 3246 3245 3244 3243 3242
3192 3194 3196 3198 3201 3206 3211 3214 3216 3218 3220 3222 3224 3225 3226 3228 3230 3232 3233 3234 3235 3236 3237 3237 3238 3239 3240 3241 3242 3243 3244 3244 3244 3244 3244 3244 3244 3243 3243 3242 3241 3239 3238
3187 3189 3192 3195 3198 3200 3203 3206 3209 3212 3214 3216 3218 3220 3221 3223 3225 3227 3229 3229 3230 3231 3232 3233 3234 3235 3236 3237 3238 3238 3239 3240 3240 3240 3240 3240 3240 3238 3238 3237 3236 3234 3234
3179 3182 3186 3190 3193 3195 3198 3200 3202 3204 3206 3208 3211 3213 3215 3217 3219 3221 3223 3224 3224 3225 3226 3228 3229 3230 3231 3232 3233 3233 3234 3235 3235 3234 3235 3235 3235 3234 3233 3232 3231 3229 3229
3175 3176 3178 3181 3184 3185 3189 3191 3195 3197 3198 3201 3203 3205 3207 3210 3212 3215 3216 3216 3216 3217 3220 3222 3223 3224 3226 3228 3226 3227 3227 3228 3229 3228 3229 3229 3229 3229 3228 3226 3226 3224 3223
3171 3172 3172 3174 3176 3179 3181 3183 3185 3187 3190 3192 3194 3197 3199 3201 3204 3206 3208 3209 3208 3210 3212 3213 3215 3217 3219 3220 3221 3221 3220 3222 3222 3222 3220 3220 3221 3222 3221 3220 3220 3218 3218
3165 3166 3167 3168 3169 3171 3173 3176 3178 3179 3181 3183 3186 3188 3190 3192 3195 3196 3199 3199 3201 3202 3203 3204 3205 3208 3210 3211 3212 3212 3213 3215 3214 3213 3213 3213 3213 3213 3213 3214 3214 3213 3212
3159 3160 3161 3161 3162 3163 3165 3166 3169 3171 3172 3174 3176 3178 3180 3183 3185 3187 3189 3191 3193 3193 3195 3197 3197 3198 3199 3201 3202 3203 3204 3204 3203 3203 3204 3204 3205 3206 3207 3206 3204 3204 3205
3150 3151 3153 3154 3155 3156 3156 3157 3159 3160 3162 3165 3167 3169 3171 3172 3176 3178 3179 3182 3183 3183 3185 3187 3189 3189 3189 3190 3192 3193 3194 3194 3193 3192 3194 3197 3199 3199 3200 3200 3200 3196 3195
3139 3141 3143 3144 3146 3148 3148 3149 3150 3151 3152 3153 3156 3158 3160 3163 3164 3166 3167 3168 3171 3171 3172 3173 3175 3178 3180 3182 3182 3182 3182 3184 3184 3184 3184 3187 3190 3191 3190 3191 3190 3191 3189
3128 3131 3133 3134 3135 3135 3139 3139 3141 3142 3142 3145 3144 3146 3147 3150 3154 3155 3155 3158 3159 3160 3161 3164 3165 3167 3168 3170 3172 3173 3172 3173 3174 3175 3176 3177 3179 3181 3182 3183 3183 3182 3181
3113 3118 3120 3122 3123 3124 3126 3128 3129 3132 3134 3135 3136 3136 3137 3138 3141 3142 3144 3146 3148 3150 3152 3153 3156 3158 3159 3161 3162 3163 3164 3163 3164 3165 3167 3168 3169 3170 3172 3174 3175 3174 3173
3102 3103 3105 3108 3110 3111 3112 3114 3117 3120 3121 3125 3126 3126 3127 3129 3129 3129 3131 3133 3137 3138 3139 3142 3145 3147 3149 3151 3153 3154 3156 3157 3156 3157 3158 3159 3160 3161 3162 3163 3165 3165 3165
3091 3091 3092 3093 3094 3097 3100 3100 3102 3105 3108 3111 3115 3115 3117 3117 3118 3119 3119 3120 3123 3124 3128 3131 3132 3135 3138 3143 3144 3144 3146 3148 3149 3150 3151 3151 3152 3153 3153 3154 3155 3156 3156
3081 3079 3077 3078 3079 3081 3082 3085 3088 3091 3094 3097 3101 3104 3106 3105 3108 3110 3110 3110 3110 3112 3116 3119 3121 3124 3127 3132 3135 3132 3133 3136 3138 3139 3141 3142 3143 3144 3144 3145 3146 3147 3147
3069 3067 3065 3063 3063 3065 3067 3069 3072 3075 3079 3082 3085 3089 3092 3093 3097 3099 3099 3100 3100 3103 3103 3107 3106 3111 3114 3117 3118 3119 3122 3123 3126 3128 3129 3131 3132 3134 3134 3135 3136 3137 3137
3056 3054 3053 3052 3050 3050 3051 3053 3057 3059 3063 3067 3070 3075 3074 3080 3082 3085 3087 3090 3090 3092 3093 3095 3096 3101 3103 3103 3104 3109 3111 3113 3115 3116 3118 3120 3121 3121 3124 3125 3126 3126 3127
3045 3042 3040 3039 3039 3039 3037 3038 3040 3044 3048 3051 3055 3058 3059 3066 3067 3070 3074 3077 3080 3081 3082 3084 3085 3087 3090 3092 3093 3091 3095 3097 3101 3104 3106 3108 3109 3110 3112 3113 3113 3113 3114
3033 3029 3027 3026 3025 3026 3026 3025 3027 3028 3032 3036 3037 3041 3046 3050 3053 3057 3060 3063 3066 3069 3071 3072 3073 3076 3077 3080 3083 3086 3089 3088 3090 3094 3095 3096 3098 3100 3101 3101 3102 3103 3103
3022 3017 3014 3013 3012 3011 3011 3012 3013 3014 3016 3019 3022 3025 3030 3033 3038 3042 3046 3049 3052 3055 3058 3060 3061 3064 3066 3068 3071 3074 3076 3079 3080 3084 3085 3086 3088 3090 3091 3090 3091 3092 3091
3013 3007 3003 3001 2999 2998 2997 2997 2998 3000 3001 3002 3006 3009 3013 3017 3022 3027 3031 3036 3038 3040 3044 3048 3050 3051 3054 3057 3060 3062 3065 3067 3070 3072 3073 3074 3076 3075 3074 3076 3078 3076 3081
3007 3001 2995 2991 2989 2986 2984 2984 2984 2984 2985 2988 2991 2994 2998 3002 3008 3011 3016 3021 3024 3027 3030 3035 3038 3040 3042 3045 3047 3050 3053 3056 3058 3061 3063 3064 3065 3065 3065 3066 3067 3070 3071